SV2RCS-13 Weather Reports


Display with metric or nautical units.
time (UTC)temp
F
wind
direction
speed
MPH
gust
MPH
rain 1hr
in
rain 24hr
in
rain mn
in
humidity
%
barometer
mb
20260503211659 47 0.0 0.0 0.00 0.00 0.00 40 1019.4
20260503210659 47 0.0 0.0 0.00 0.00 0.00 39 1019.3
20260503205659 47 0.0 0.0 0.00 0.00 0.00 40 1019.3
20260503204659 47 0.0 0.0 0.00 0.00 0.00 40 1019.4
20260503203700 46 0.0 0.0 0.00 0.00 0.00 40 1019.3
20260503202659 47 0.0 0.0 0.00 0.00 0.00 39 1019.3
20260503201700 47 0.0 0.0 0.00 0.00 0.00 39 1019.4
20260503200700 47 0.0 0.0 0.00 0.00 0.00 39 1019.4
20260503195700 47 0.0 0.0 0.00 0.00 0.00 39 1019.4
20260503194659 47 0.0 0.0 0.00 0.00 0.00 39 1019.2
20260503193700 47 0.0 0.0 0.00 0.00 0.00 40 1019.2
20260503192659 48 0.0 0.0 0.00 0.00 0.00 39 1019.2
20260503191659 47 0.0 0.0 0.00 0.00 0.00 39 1019.2
20260503190700 47 0.0 0.0 0.00 0.00 0.00 39 1019.1
20260503185659 48 0.0 0.0 0.00 0.00 0.00 39 1019.0
20260503184659 48 0.0 0.0 0.00 0.00 0.00 39 1018.8
20260503183659 48 0.0 0.0 0.00 0.00 0.00 39 1018.6
20260503182700 48 0.0 0.0 0.00 0.00 0.00 40 1018.5
20260503181700 49 0.0 0.0 0.00 0.00 0.00 40 1018.3
20260503180700 49 0.0 0.0 0.00 0.00 0.00 39 1018.0
20260503175700 49 0.0 0.0 0.00 0.00 0.00 39 1018.1
20260503174701 50 0.0 0.0 0.00 0.00 0.00 38 1017.9
20260503173701 50 0.0 0.0 0.00 0.00 0.00 37 1017.6
20260503172659 51 0.0 0.0 0.00 0.00 0.00 37 1017.4
20260503171702 51 0.0 0.0 0.00 0.00 0.00 34 1017.2
20260503170659 52 0.0 0.0 0.00 0.00 0.00 29 1016.9
20260503150659 54 0.0 0.0 0.00 0.00 0.00 24 1016.3
20260503130700 55 0.0 0.0 0.00 0.00 0.00 21 1016.3
20260503110701 55 0.0 0.0 0.00 0.00 0.00 21 1016.7
20260503080700 57 0.0 0.0 0.00 0.00 0.00 25 1016.6
20260503072659 58 0.0 0.0 0.00 0.00 0.00 27 1016.4
20260503071659 56 0.0 0.0 0.00 0.00 0.00 33 1016.7
20260503070659 55 0.0 0.0 0.00 0.00 0.00 34 1017.1
20260503054659 49 0.0 0.0 0.00 0.00 0.00 44 1017.6
20260503053659 49 0.0 0.0 0.00 0.00 0.00 49 1017.9
20260503052659 49 0.0 0.0 0.00 0.00 0.00 46 1017.8
20260503051659 49 0.0 0.0 0.00 0.00 0.00 44 1017.6
20260503050659 50 0.0 0.0 0.00 0.00 0.00 44 1017.3
20260503045659 50 0.0 0.0 0.00 0.00 0.00 45 1017.4
20260503044659 49 0.0 0.0 0.00 0.00 0.00 44 1017.3
20260503043700 49 0.0 0.0 0.00 0.00 0.00 43 1017.1
20260503042659 49 0.0 0.0 0.00 0.00 0.00 45 1016.9
20260503041659 48 0.0 0.0 0.00 0.00 0.00 48 1017.0
20260503040659 48 0.0 0.0 0.00 0.00 0.00 48 1016.9
20260503035659 48 0.0 0.0 0.00 0.00 0.00 50 1016.8
20260503034659 47 0.0 0.0 0.00 0.00 0.00 50 1017.2
20260503033659 46 0.0 0.0 0.00 0.00 0.00 50 1017.2
20260503032703 46 0.0 0.0 0.00 0.00 0.00 50 1017.1
20260503031659 46 0.0 0.0 0.00 0.00 0.00 50 1017.2
20260503030659 46 0.0 0.0 0.00 0.00 0.00 50 1017.2
20260503025702 46 0.0 0.0 0.00 0.00 0.00 49 1017.2
20260503024659 47 0.0 0.0 0.00 0.00 0.00 48 1017.2
20260503023659 48 0.0 0.0 0.00 0.00 0.00 47 1017.0
20260503022659 48 0.0 0.0 0.00 0.00 0.00 47 1017.0
20260503021659 48 0.0 0.0 0.00 0.00 0.00 47 1016.9
20260503020659 49 0.0 0.0 0.00 0.00 0.00 47 1016.9
20260503015659 48 0.0 0.0 0.00 0.00 0.00 48 1016.9
20260503014659 48 0.0 0.0 0.00 0.00 0.00 49 1017.0
20260503013659 48 0.0 0.0 0.00 0.00 0.00 49 1017.0
20260503012700 48 0.0 0.0 0.00 0.00 0.00 50 1017.2
20260503011659 48 0.0 0.0 0.00 0.00 0.00 50 1017.2
20260503010659 48 0.0 0.0 0.00 0.00 0.00 50 1017.3
20260503005659 47 0.0 0.0 0.00 0.00 0.00 52 1017.6
20260503004658 47 0.0 0.0 0.00 0.00 0.00 52 1017.6
20260503003658 47 0.0 0.0 0.00 0.00 0.00 52 1017.8
20260503002659 47 0.0 0.0 0.00 0.00 0.00 52 1017.8
20260503001659 48 0.0 0.0 0.00 0.00 0.00 51 1017.8
20260503000659 49 0.0 0.0 0.00 0.00 0.00 49 1017.7
20260502235659 49 0.0 0.0 0.00 0.00 0.00 48 1017.7
20260502234659 49 0.0 0.0 0.00 0.00 0.00 47 1017.9
20260502233659 49 0.0 0.0 0.00 0.00 0.00 47 1017.9
20260502232659 49 0.0 0.0 0.00 0.00 0.00 48 1018.2
20260502231658 49 0.0 0.0 0.00 0.00 0.00 47 1018.2
20260502230659 49 0.0 0.0 0.00 0.00 0.00 47 1018.2
20260502225659 49 0.0 0.0 0.00 0.00 0.00 47 1018.3
20260502224659 49 0.0 0.0 0.00 0.00 0.00 48 1018.3
20260502223700 49 0.0 0.0 0.00 0.00 0.00 47 1018.4
20260502222658 50 0.0 0.0 0.00 0.00 0.00 46 1018.1
20260502221659 50 0.0 0.0 0.00 0.00 0.00 45 1018.3
20260502220659 51 0.0 0.0 0.00 0.00 0.00 43 1018.2
20260502215659 51 0.0 0.0 0.00 0.00 0.00 42 1018.3
20260502214659 51 0.0 0.0 0.00 0.00 0.00 41 1018.4
20260502213659 51 0.0 0.0 0.00 0.00 0.00 40 1018.5
20260502212658 51 0.0 0.0 0.00 0.00 0.00 41 1018.5